Simultaneous Nadir Overpasses (SNOs) Predictions

Prediction of SNOs between GOES-15 and TERRA Satellite Orbit:

Table of predicted SNOs for the next 14.0 days since TLE Epoch: 10/28/2023
Index Date Time (GOES-15) GOES-15 Lat,Lon TERRA Lat,Lon Distance(km) Time Diff (sec)
1 10/28/2023 05:41:07 -0.30, 67.84 0.29, 65.02 320.21 80
2 10/30/2023 05:21:57 -0.30, 65.71 -0.96, 68.95 367.07 80
3 10/30/2023 17:44:54 0.30, 65.27 0.05, 63.99 144.78 80
4 11/02/2023 05:45:52 -0.29, 62.50 -0.37, 63.01 57.61 80
5 11/02/2023 18:08:49 0.28, 62.05 -0.58, 58.07 453.30 80
6 11/04/2023 17:49:39 0.28, 59.94 0.73, 61.99 232.77 80
7 11/05/2023 06:12:28 -0.27, 59.29 0.17, 57.07 252.04 80
8 11/07/2023 05:53:16 -0.27, 57.18 -1.05, 61.01 434.87 80
9 11/07/2023 18:16:13 0.26, 56.73 0.13, 56.06 75.56 80
10 11/10/2023 06:17:09 -0.26, 53.98 -0.47, 55.08 124.88 80
11 11/10/2023 18:40:06 0.25, 53.52 -0.43, 50.13 384.50 80
